Location: Elk Forest
(39.5314°N, 75.8738°W)
Time: 17:44:33
(UTC-04:00)

Daily predictions for brighter satellites

Satellite Brightness Start Highest point End
(mag) Time Altitude Azimuth Time Altitude Azimuth Time Altitude Azimuth
Cosmos 2297 Rocket 2.2 19:53:24 10° NNW 19:59:05 75° ENE 20:04:44 10° SSE
CZ-2D R/B 4.3 19:57:07 10° SE 20:00:28 28° ENE 20:03:50 10° N
Cosmos 2082 3.9 19:57:15 10° NNW 20:02:52 78° WSW 20:08:29 10° SSE
Resurs 01 Rocket 1.7 19:58:38 10° SSE 20:03:03 87° ENE 20:07:32 10° NNW
Cosmos 1975 3.1 20:00:55 10° SSE 20:04:52 48° E 20:08:50 10° NNE
Lacrosse 5 rocket 2.5 20:02:34 10° WNW 20:05:59 35° SW 20:09:19 10° SSE
ATLAS 2A CENTAUR R/B 4.1 20:05:18 10° WSW 20:07:09 11° SW 20:08:34 10° SSW
FengYun 1-2 T 4.3 20:01:56 10° SSE 20:07:31 69° ENE 20:13:04 10° N
Cosmos 2150 Rocket 4.2 20:07:27 10° N 20:12:28 50° ENE 20:17:29 10° SE
HJ-1C 4.1 20:11:35 10° S 20:14:49 57° W 20:18:06 10° NNW
METEOR-M 4.4 20:10:17 10° S 20:15:36 74° WSW 20:21:00 10° NNW
Cosmos 1515 4.1 20:11:59 10° N 20:15:39 42° E 20:19:17 10° SSE
Cosmos 2084 3.5 20:15:34 10° NW 20:19:38 79° WSW 20:23:58 10° SSE
Cosmos 1898 Rocket 3.6 20:14:40 10° NNW 20:19:56 62° ENE 20:25:06 10° SSE
Cosmos 468 Rocket 3.9 20:21:18 10° S 20:26:23 75° ESE 20:31:32 10° NNE
Cosmos 841 Rocket 4.1 20:25:26 10° SSE 20:30:03 33° E 20:34:40 10° NE
Cosmos 1697 Rocket 2.7 20:24:44 10° SSW 20:30:23 87° ESE 20:36:04 10° NNE
Cosmos 2173 Rocket 4.3 20:29:22 10° SSE 20:35:23 46° E 20:41:22 10° NNE
H-2A R/B 3.9 20:35:01 13° ENE 20:35:56 13° ENE 20:37:58 10° NE
Cosmos 1743 3.3 20:32:49 10° SSE 20:36:25 37° E 20:40:03 10° NNE
Cosmos 1626 Rocket 3.8 20:34:10 10° NNW 20:38:32 71° W 20:42:51 10° S
DELTA 2 R/B (1) 4.5 20:36:06 10° W 20:41:15 39° SSW 20:45:24 15° SE
Cosmos 1814 Rocket 4.0 20:36:06 10° SSW 20:41:26 86° ESE 20:46:45 10° NNE
Cosmos 1066 Rocket 4.2 20:35:56 10° N 20:41:40 70° E 20:47:28 10° SSE
CZ-4B DEB 3.7 20:38:45 10° S 20:41:57 50° W 20:45:10 10° NNW
SL-16 R/B 3.1 20:41:59 10° SSE 20:46:27 25° ESE 20:50:57 10° NE
Lacrosse 5 2.0 20:42:04 10° NW 20:47:07 71° SW 20:50:59 17° SSE
Cosmos 1939 Rocket 3.9 20:46:28 23° ESE 20:47:58 29° ENE 20:51:34 10° N
Cosmos 1602 Rocket 4.4 20:45:19 10° NNW 20:49:39 53° W 20:53:55 10° S
Cosmos 1758 Rocket 4.4 20:48:48 10° NNE 20:52:37 30° ENE 20:53:45 26° ESE
USA 186 1.8 20:52:31 14° S 20:54:58 63° WSW 20:57:44 10° NNW
Cosmos 1980 Rocket 2.1 20:49:38 10° SSW 20:55:18 84° ESE 21:01:02 10° NNE
Iridium 4 Rocket 3.4 20:50:29 10° N 20:55:19 75° W 20:59:43 10° S
Cosmos 2100 Rocket 3.9 20:49:16 10° S 20:55:31 74° E 21:01:43 10° N
SPOT 5 4.1 20:57:22 22° E 20:58:20 23° ENE 21:02:03 10° NNE
YAOGAN 11 4.2 20:58:11 25° SE 21:00:39 56° ENE 21:05:00 10° N
FENGYUN 3A 4.2 20:55:41 10° S 21:00:56 58° W 21:06:13 10° NNW
ALOS 3.3 20:58:57 10° S 21:03:26 46° W 21:07:56 10° NNW
H-2A R/B 3.9 21:03:03 10° S 21:06:47 44° W 21:10:35 10° NNW
deb Chang Zheng 4 4.3 21:06:52 10° NNE 21:10:32 33° E 21:10:32 33° E
Cosmos 1666 2.9 21:13:59 46° E 21:13:59 46° E 21:17:28 10° NNE
Envisat 3.1 21:12:39 33° SE 21:14:41 56° ENE 21:19:39 10° N
RESURS DK-1 3.5 21:10:53 10° NW 21:14:48 41° WSW 21:17:35 17° S
Cosmos 2061 Rocket 4.0 21:08:43 10° S 21:15:02 86° W 21:21:19 10° N
CZ-4 DEB 2.5 21:14:52 73° SSE 21:15:08 85° ENE 21:18:17 10° N
Cosmos 1459 Rocket 4.0 21:10:01 10° S 21:16:04 82° W 21:22:14 10° N
OAO 2 Rocket 4.0 21:11:58 10° W 21:16:36 39° SSW 21:17:57 32° SSE
Cosmos 1937 Rocket 4.1 21:11:33 10° NNW 21:16:43 56° WSW 21:21:07 14° S
Cosmos 1842 3.6 21:15:08 10° N 21:18:45 45° ENE 21:18:45 45° ENE
Cosmos 2263 Rocket 3.4 21:14:51 10° N 21:19:25 25° NE 21:20:21 24° ENE
Cosmos 1606 Rocket 3.5 21:16:54 11° S 21:21:06 87° W 21:25:35 10° N
Tiangong 1 2.2 21:18:29 10° W 21:21:05 33° SW 21:21:05 33° SW
Cosmos 990 Rocket 4.2 21:17:24 10° NNW 21:22:37 68° WSW 21:25:45 24° S
Cosmos 2058 Rocket 3.1 21:22:10 44° SSE 21:23:21 61° E 21:27:49 10° NNE
Cosmos 1725 Rocket 4.0 21:23:01 27° SSE 21:26:21 57° E 21:32:27 10° NNE
Cosmos 1340 3.1 21:26:22 10° NNW 21:30:07 59° W 21:31:12 40° SSW
Cosmos 2322 Rocket 2.1 21:25:15 10° S 21:30:45 64° ESE 21:36:20 10° NNE
ERS-1 Rocket 3.0 21:29:00 31° S 21:31:27 78° WSW 21:36:30 10° NNW
MetOp-A 4.4 21:31:13 43° E 21:32:00 47° ENE 21:37:06 10° N
Cosmos 1726 Rocket 4.1 21:40:10 21° SSW 21:42:58 58° W 21:47:21 10° N
Meteor 2-9 Rocket 4.0 21:42:27 27° S 21:45:32 88° W 21:50:57 10° N
Cosmos 2233 Rocket 4.1 21:46:04 49° E 21:46:21 50° E 21:52:20 10° NNE
H-2A R/B 3.7 21:54:30 19° NE 21:54:30 19° NE 21:56:50 10° NNE
Cosmos 783 Rocket 4.4 21:54:20 70° ENE 21:54:20 70° ENE 21:59:17 10° NNE
Meteor 2-5 Rocket 4.4 21:52:22 10° N 21:57:20 40° ENE 21:57:20 40° ENE
Meteor 1-15 Rocket 4.4 21:56:10 30° SSW 21:59:13 78° W 22:05:06 10° N
BREEZE-M DEB (TANK) 3.2 21:57:37 10° NW 21:59:21 46° NW 21:59:21 46° NW
ASTEX 1 3.6 21:59:33 10° N 22:04:32 68° W 22:05:15 59° SW
Cosmos 2228 3.7 22:08:23 51° NW 22:08:23 51° NW 22:11:58 10° N
Cosmos 1125 Rocket 3.6 22:03:03 10° NNW 22:08:14 66° WSW 22:08:30 64° SW
H-2A R/B 2.9 22:12:09 44° WNW 22:12:09 44° WNW 22:15:33 10° NNW
Cosmos 540 Rocket 3.5 22:12:08 73° W 22:12:12 73° WNW 22:17:21 10° NNE
SPOT 1/Viking Rocket 3.8 22:13:18 61° NNE 22:13:18 61° NNE 22:17:43 10° N
Cosmos 332 Rocket 4.3 22:17:01 57° WNW 22:17:10 58° WNW 22:22:01 10° N
ARGOS 3.4 22:20:25 63° NNE 22:20:25 63° NNE 22:25:00 10° N
MetOp-B 4.5 22:25:40 59° W 22:25:40 59° W 22:30:53 10° NNW
USA 245 4.4 22:26:45 79° SW 22:26:57 80° WSW 22:33:15 10° NNW
NOAA 11 4.4 22:29:44 66° NNW 22:29:44 66° NNW 22:34:24 10° NNW
Cosmos 1844 Rocket 4.5 22:25:42 10° N 22:28:41 20° NE 22:28:41 20° NE
SL-16 R/B 3.2 22:24:51 10° SW 22:30:14 44° WNW 22:35:41 10° N
BREEZE-M TANK 4.4 22:27:31 10° WNW 22:31:14 27° W 22:31:14 27° W
SPOT 5 4.1 22:36:38 36° W 22:36:38 36° W 22:40:37 10° NNW
Cosmos 2360 Rocket 3.6 22:42:34 30° NNE 22:42:34 30° NNE 22:45:20 10° NNE
Terra 3.7 22:47:05 25° N 22:47:05 25° N 22:49:07 10° N
Cosmos 2263 Rocket 3.4 22:58:14 10° NW 23:02:03 37° WNW 23:02:03 37° WNW
H-2A R/B 4.2 23:35:07 21° NW 23:35:07 21° NW 23:36:56 10° NNW
USA 215 4.0 23:39:52 48° NNW 23:39:52 48° NNW 23:44:34 10° NW
